Погода в Маасине

Филиппины     10°08′15″N   124°51′33″E
темп.,
°C
ветер,
м/с
пор.,
м/с
влажн.,
%
обл.,
%
осадки,
мм/ч
давл.,
гПа
погр.,
м
18 января, пн
пн1823:00+25всв2388100 1.8 1008280
02:00+25св41083100 5.0 1007742
05:00+26в1579100 0.0 1006669
08:00+26св1183100 0.1 1009159
11:00+25с4487100 2.2 1008307
14:00+24в0191100 6.2 1007113
17:00+24ссз3493100 7.1 1007309
20:00+25с6888100 11.4 1008560
19 января, вт
вт1923:00+24с71093100 7.5 1007628
02:00+24ссз5594100 11.5 1006226
05:00+24ссз3394100 4.3 1005210
08:00+25ссз4494100 10.8 1007259
11:00+25з1189100 1.4 1007260
14:00+26ююз2285100 2.0 1006398
17:00+26зсз128496 0.1 1006291
20:00+26с228676 0.4 1009279
20 января, ср
ср2023:00+25св128788 0.0 1009184
02:00+25ссв128794 0.1 1008166
05:00+25ссв228794 0.8 1007169
08:00+26св228596 1.3 1009177
11:00+27юв1283100 1.9 1009271
14:00+27вюв4882100 5.2 1007693
17:00+27вюв4985100 0.4 1007639
20:00+26ююв5687100 0.4 1009496
21 января, чт
чт2123:00+26вюв458595 0.1 1009324
02:00+26в338895 1.1 1008162
05:00+26юв348791 3.2 1008178
08:00+27в228494 7.3 1009125
11:00+27ююв228199 2.1 1009179
14:00+27юв228099 2.8 1007320
17:00+26вюв5884100 2.1 1008485
20:00+24в3488100 2.9 1010237
22 января, пт
пт2223:00+24всв2288100 1.2 1010167
02:00+24ссв2290100 2.1 1008177
05:00+24св2288100 0.2 1009184
08:00+25юв1284100 0.2 1010202
11:00+27ююв127291 0.1 1010469
14:00+28ю137484 1.3 1008498
17:00+27в257774 0.4 1008593
20:00+26всв348287 0.5 1009334